This is the latest recevied weather packets stored in our database for station/object KE5BM-13. If no packets are shown the sender has not sent any weather packets the latest 10 day(s).
| Time | Temp. | Humidity | Pressure | Rain* | Wind** | Luminosity | Snow |
|---|---|---|---|---|---|---|---|
| 1777912863 | 17.22° C | 49% | 1009.9 hPa | 0 mm | - | - | - |
| 1777912562 | 17.22° C | 52% | 1009.8 hPa | 0 mm | - | - | - |
| 1777912262 | 16.67° C | 52% | 1010 hPa | 0 mm | - | - | - |
| 1777911962 | 16.67° C | 53% | 1009.9 hPa | 0 mm | - | - | - |
| 1777911661 | 17.22° C | 54% | 1009.8 hPa | 0 mm | - | - | - |
| 1777911361 | 16.67° C | 54% | 1009.9 hPa | 0 mm | - | - | - |
| 1777911059 | 16.67° C | 55% | 1010 hPa | 0 mm | - | - | - |
| 1777910758 | 16.67° C | 57% | 1009.8 hPa | 0 mm | - | - | - |
| 1777910457 | 16.67° C | 53% | 1010 hPa | 0 mm | - | - | - |
| 1777910157 | 16.67° C | 54% | 1010 hPa | 0 mm | - | - | - |
| 1777909859 | 16.67° C | 55% | 1010 hPa | 0 mm | - | - | - |
| 1777909557 | 16.67° C | 58% | 1010 hPa | 0 mm | - | - | - |
| 1777909258 | 16.67° C | 57% | 1010.2 hPa | 0 mm | - | - | - |
| 1777908956 | 16.67° C | 61% | 1010.2 hPa | 0 mm | - | - | - |
| 1777908653 | 16.67° C | 61% | 1010.2 hPa | 0 mm | - | - | - |
| 1777908356 | 16.11° C | 64% | 1010.3 hPa | 0 mm | - | - | - |
| 1777908052 | 16.11° C | 61% | 1010.4 hPa | 0 mm | - | - | - |
| 1777907752 | 16.11° C | 62% | 1010.4 hPa | 0 mm | - | - | - |
| 1777907453 | 15.56° C | 63% | 1010.5 hPa | 0 mm | - | - | - |
| 1777907153 | 15.56° C | 64% | 1010.5 hPa | 0 mm | - | - | - |
| 1777906849 | 15° C | 67% | 1010.6 hPa | 0 mm | - | - | - |
| 1777906549 | 14.44° C | 67% | 1010.6 hPa | 0 mm | - | - | - |
| 1777906250 | 14.44° C | 68% | 1010.7 hPa | 0 mm | - | - | - |
| 1777905951 | 14.44° C | 66% | 1010.7 hPa | 0 mm | - | - | - |
| 1777905649 | 15° C | 67% | 1010.8 hPa | 0 mm | - | - | - |
* Rain latest hour (hover to see other rain measurements)
** Current wind speed in m/s (hover to see current wind gust speed)